Year,Month,Day,Hour,Minute,Value (Times are PST for temperature in C)
2009,08,26,00,00,13.10
2009,08,26,00,01,13.10
2009,08,26,00,02,13.00
2009,08,26,00,03,13.00
2009,08,26,00,04,13.00
2009,08,26,00,05,12.90
2009,08,26,00,06,12.90
2009,08,26,00,07,12.90
2009,08,26,00,08,12.90
2009,08,26,00,09,12.90
2009,08,26,00,10,12.90
2009,08,26,00,11,12.90
2009,08,26,00,12,12.90
2009,08,26,00,13,12.90
2009,08,26,00,14,12.90
2009,08,26,00,15,12.90
2009,08,26,00,16,12.90
2009,08,26,00,17,12.90
2009,08,26,00,18,12.80
2009,08,26,00,19,12.80
2009,08,26,00,20,12.80
2009,08,26,00,21,12.80
2009,08,26,00,22,12.80
2009,08,26,00,23,12.80
2009,08,26,00,24,12.80
2009,08,26,00,25,12.80
2009,08,26,00,26,12.80
2009,08,26,00,27,12.80
2009,08,26,00,28,12.80
2009,08,26,00,29,12.80
2009,08,26,00,30,12.90
2009,08,26,00,31,12.90
2009,08,26,00,32,12.90
2009,08,26,00,33,12.90
2009,08,26,00,34,12.90
2009,08,26,00,35,12.90
2009,08,26,00,36,12.90
2009,08,26,00,37,12.80
2009,08,26,00,38,12.80
2009,08,26,00,39,12.80
2009,08,26,00,40,12.80
2009,08,26,00,41,12.80
2009,08,26,00,42,12.80
2009,08,26,00,43,12.80
2009,08,26,00,44,12.80
2009,08,26,00,45,12.80
2009,08,26,00,46,12.80
2009,08,26,00,47,12.80
2009,08,26,00,48,12.80
2009,08,26,00,49,12.80
2009,08,26,00,50,12.80
2009,08,26,00,51,12.80
2009,08,26,00,52,12.80
2009,08,26,00,53,12.80
2009,08,26,00,54,12.70
2009,08,26,00,55,12.70
2009,08,26,00,56,12.70
2009,08,26,00,57,12.70
2009,08,26,00,58,12.70
2009,08,26,00,59,12.60
2009,08,26,01,00,12.60
2009,08,26,01,01,12.60
2009,08,26,01,02,12.60
2009,08,26,01,03,12.60
2009,08,26,01,04,12.50
2009,08,26,01,05,12.50
2009,08,26,01,06,12.50
2009,08,26,01,07,12.40
2009,08,26,01,08,12.40
2009,08,26,01,09,12.40
2009,08,26,01,10,12.40
2009,08,26,01,11,12.40
2009,08,26,01,12,12.40
2009,08,26,01,13,12.40
2009,08,26,01,14,12.40
2009,08,26,01,15,12.40
2009,08,26,01,16,12.40
2009,08,26,01,17,12.40
2009,08,26,01,18,12.30
2009,08,26,01,19,12.30
2009,08,26,01,20,12.30
2009,08,26,01,21,12.30
2009,08,26,01,22,12.30
2009,08,26,01,23,12.30
2009,08,26,01,24,12.30
2009,08,26,01,25,12.30
2009,08,26,01,26,12.30
2009,08,26,01,27,12.30
2009,08,26,01,28,12.20
2009,08,26,01,29,12.20
2009,08,26,01,30,12.20
2009,08,26,01,31,12.20
2009,08,26,01,32,12.10
2009,08,26,01,33,12.10
2009,08,26,01,34,12.10
2009,08,26,01,35,12.00
2009,08,26,01,36,12.00
2009,08,26,01,37,12.00
2009,08,26,01,38,11.90
2009,08,26,01,39,11.90
2009,08,26,01,40,11.90
2009,08,26,01,41,11.90
2009,08,26,01,42,11.90
2009,08,26,01,43,11.80
2009,08,26,01,44,11.80
2009,08,26,01,45,11.80
2009,08,26,01,46,11.90
2009,08,26,01,47,11.90
2009,08,26,01,48,11.90
2009,08,26,01,49,11.90
2009,08,26,01,50,11.90
2009,08,26,01,51,11.90
2009,08,26,01,52,11.90
2009,08,26,01,53,11.90
2009,08,26,01,54,11.90
2009,08,26,01,55,11.90
2009,08,26,01,56,11.90
2009,08,26,01,57,11.90
2009,08,26,01,58,11.80
2009,08,26,01,59,11.80
2009,08,26,02,00,11.80
2009,08,26,02,01,11.80
2009,08,26,02,02,11.80
2009,08,26,02,03,11.80
2009,08,26,02,04,11.80
2009,08,26,02,05,11.70
2009,08,26,02,06,11.70
2009,08,26,02,07,11.70
2009,08,26,02,08,11.70
2009,08,26,02,09,11.70
2009,08,26,02,10,11.60
2009,08,26,02,11,11.60
2009,08,26,02,12,11.60
2009,08,26,02,13,11.60
2009,08,26,02,14,11.60
2009,08,26,02,15,11.60
2009,08,26,02,16,11.50
2009,08,26,02,17,11.50
2009,08,26,02,18,11.50
2009,08,26,02,19,11.50
2009,08,26,02,20,11.40
2009,08,26,02,21,11.40
2009,08,26,02,22,11.40
2009,08,26,02,23,11.40
2009,08,26,02,24,11.40
2009,08,26,02,25,11.30
2009,08,26,02,26,11.30
2009,08,26,02,27,11.30
2009,08,26,02,28,11.30
2009,08,26,02,29,11.20
2009,08,26,02,30,11.20
2009,08,26,02,31,11.20
2009,08,26,02,32,11.20
2009,08,26,02,33,11.20
2009,08,26,02,34,11.20
2009,08,26,02,35,11.20
2009,08,26,02,36,11.10
2009,08,26,02,37,11.10
2009,08,26,02,38,11.10
2009,08,26,02,39,11.10
2009,08,26,02,40,11.10
2009,08,26,02,41,11.10
2009,08,26,02,42,11.10
2009,08,26,02,43,11.20
2009,08,26,02,44,11.10
2009,08,26,02,45,11.20
2009,08,26,02,46,11.10
2009,08,26,02,47,11.20
2009,08,26,02,48,11.10
2009,08,26,02,49,11.20
2009,08,26,02,50,11.20
2009,08,26,02,51,11.20
2009,08,26,02,52,11.20
2009,08,26,02,53,11.20
2009,08,26,02,54,11.20
2009,08,26,02,55,11.20
2009,08,26,02,56,11.20
2009,08,26,02,57,11.20
2009,08,26,02,58,11.20
2009,08,26,02,59,11.20
2009,08,26,03,00,11.30
2009,08,26,03,01,11.30
2009,08,26,03,02,11.30
2009,08,26,03,03,11.30
2009,08,26,03,04,11.30
2009,08,26,03,05,11.30
2009,08,26,03,06,11.30
2009,08,26,03,07,11.30
2009,08,26,03,08,11.30
2009,08,26,03,09,11.30
2009,08,26,03,10,11.30
2009,08,26,03,11,11.30
2009,08,26,03,12,11.30
2009,08,26,03,13,11.40
2009,08,26,03,14,11.40
2009,08,26,03,15,11.40
2009,08,26,03,16,11.40
2009,08,26,03,17,11.40
2009,08,26,03,18,11.40
2009,08,26,03,19,11.40
2009,08,26,03,20,11.40
2009,08,26,03,21,11.40
2009,08,26,03,22,11.40
2009,08,26,03,23,11.40
2009,08,26,03,24,11.40
2009,08,26,03,25,11.40
2009,08,26,03,26,11.40
2009,08,26,03,27,11.40
2009,08,26,03,28,11.40
2009,08,26,03,29,11.40
2009,08,26,03,30,11.40
2009,08,26,03,31,11.40
2009,08,26,03,32,11.40
2009,08,26,03,33,11.40
2009,08,26,03,34,11.50
2009,08,26,03,35,11.50
2009,08,26,03,36,11.50
2009,08,26,03,37,11.50
2009,08,26,03,38,11.50
2009,08,26,03,39,11.60
2009,08,26,03,40,11.60
2009,08,26,03,41,11.60
2009,08,26,03,42,11.70
2009,08,26,03,43,11.70
2009,08,26,03,44,11.70
2009,08,26,03,45,11.80
2009,08,26,03,46,11.80
2009,08,26,03,47,11.80
2009,08,26,03,48,11.80
2009,08,26,03,49,11.80
2009,08,26,03,50,11.80
2009,08,26,03,51,11.80
2009,08,26,03,52,11.80
2009,08,26,03,53,11.80
2009,08,26,03,54,11.80
2009,08,26,03,55,11.80
2009,08,26,03,56,11.80
2009,08,26,03,57,11.80
2009,08,26,03,58,11.70
2009,08,26,03,59,11.70
2009,08,26,04,00,11.70
2009,08,26,04,01,11.70
2009,08,26,04,02,11.70
2009,08,26,04,03,11.60
2009,08,26,04,04,11.60
2009,08,26,04,09,11.40
2009,08,26,04,10,11.40
2009,08,26,04,11,11.40
2009,08,26,04,12,11.30
2009,08,26,04,13,11.30
2009,08,26,04,14,11.30
2009,08,26,04,15,11.30
2009,08,26,04,16,11.20
2009,08,26,04,17,11.20
2009,08,26,04,18,11.20
2009,08,26,04,19,11.20
2009,08,26,04,20,11.20
2009,08,26,04,21,11.10
2009,08,26,04,22,11.10
2009,08,26,04,23,11.10
2009,08,26,04,24,11.10
2009,08,26,04,25,11.10
2009,08,26,04,26,11.00
2009,08,26,04,27,11.00
2009,08,26,04,28,10.90
2009,08,26,04,29,10.90
2009,08,26,04,30,10.90
2009,08,26,04,31,10.90
2009,08,26,04,32,10.80
2009,08,26,04,33,10.80
2009,08,26,04,34,10.80
2009,08,26,04,35,10.80
2009,08,26,04,36,10.80
2009,08,26,04,37,10.80
2009,08,26,04,38,10.70
2009,08,26,04,39,10.70
2009,08,26,04,40,10.70
2009,08,26,04,41,10.70
2009,08,26,04,42,10.70
2009,08,26,04,43,10.70
2009,08,26,04,44,10.70
2009,08,26,04,45,10.70
2009,08,26,04,46,10.70
2009,08,26,04,47,10.70
2009,08,26,04,48,10.70
2009,08,26,04,49,10.60
2009,08,26,04,50,10.60
2009,08,26,04,51,10.60
2009,08,26,04,52,10.60
2009,08,26,04,53,10.50
2009,08,26,04,54,10.50
2009,08,26,04,55,10.50
2009,08,26,04,56,10.40
2009,08,26,04,57,10.40
2009,08,26,04,58,10.40
2009,08,26,04,59,10.30
2009,08,26,05,00,10.30
2009,08,26,05,01,10.30
2009,08,26,05,02,10.30
2009,08,26,05,03,10.20
2009,08,26,05,04,10.20
2009,08,26,05,05,10.20
2009,08,26,05,06,10.20
2009,08,26,05,07,10.20
2009,08,26,05,08,10.20
2009,08,26,05,09,10.20
2009,08,26,05,10,10.10
2009,08,26,05,11,10.10
2009,08,26,05,12,10.10
2009,08,26,05,13,10.10
2009,08,26,05,14,10.10
2009,08,26,05,15,10.10
2009,08,26,05,16,10.00
2009,08,26,05,17,10.00
2009,08,26,05,18,10.00
2009,08,26,05,19,9.90
2009,08,26,05,20,9.90
2009,08,26,05,21,9.90
2009,08,26,05,22,9.80
2009,08,26,05,23,9.80
2009,08,26,05,24,9.80
2009,08,26,05,25,9.80
2009,08,26,05,26,9.80
2009,08,26,05,27,9.80
2009,08,26,05,28,9.70
2009,08,26,05,29,9.70
2009,08,26,05,30,9.70
2009,08,26,05,31,9.70
2009,08,26,05,32,9.70
2009,08,26,05,33,9.70
2009,08,26,05,34,9.70
2009,08,26,05,35,9.70
2009,08,26,05,36,9.60
2009,08,26,05,37,9.60
2009,08,26,05,38,9.60
2009,08,26,05,39,9.60
2009,08,26,05,40,9.60
2009,08,26,05,41,9.60
2009,08,26,05,42,9.60
2009,08,26,05,43,9.60
2009,08,26,05,44,9.60
2009,08,26,05,45,9.60
2009,08,26,05,46,9.60
2009,08,26,05,47,9.60
2009,08,26,05,48,9.60
2009,08,26,05,49,9.60
2009,08,26,05,50,9.60
2009,08,26,05,51,9.50
2009,08,26,05,52,9.50
2009,08,26,05,53,9.50
2009,08,26,05,54,9.50
2009,08,26,05,55,9.40
2009,08,26,05,56,9.40
2009,08,26,05,57,9.40
2009,08,26,05,58,9.40
2009,08,26,05,59,9.40
2009,08,26,06,00,9.40
2009,08,26,06,01,9.40
2009,08,26,06,02,9.40
2009,08,26,06,03,9.40
2009,08,26,06,04,9.40
2009,08,26,06,05,9.40
2009,08,26,06,06,9.40
2009,08,26,06,07,9.40
2009,08,26,06,08,9.40
2009,08,26,06,09,9.40
2009,08,26,06,10,9.40
2009,08,26,06,11,9.30
2009,08,26,06,12,9.30
2009,08,26,06,13,9.30
2009,08,26,06,14,9.30
2009,08,26,06,15,9.30
2009,08,26,06,16,9.20
2009,08,26,06,17,9.20
2009,08,26,06,18,9.20
2009,08,26,06,19,9.20
2009,08,26,06,20,9.20
2009,08,26,06,21,9.20
2009,08,26,06,22,9.10
2009,08,26,06,23,9.10
2009,08,26,06,24,9.10
2009,08,26,06,25,9.10
2009,08,26,06,26,9.10
2009,08,26,06,27,9.00
2009,08,26,06,28,9.00
2009,08,26,06,29,9.00
2009,08,26,06,30,9.00
2009,08,26,06,31,9.10
2009,08,26,06,32,9.10
2009,08,26,06,33,9.10
2009,08,26,06,34,9.10
2009,08,26,06,35,9.10
2009,08,26,06,36,9.10
2009,08,26,06,37,9.10
2009,08,26,06,38,9.00
2009,08,26,06,39,9.00
2009,08,26,06,40,9.00
2009,08,26,06,41,9.00
2009,08,26,06,42,9.00
2009,08,26,06,43,8.90
2009,08,26,06,44,8.90
2009,08,26,06,45,8.90
2009,08,26,06,46,8.90
2009,08,26,06,47,8.90
2009,08,26,06,48,8.90
2009,08,26,06,49,8.90
2009,08,26,06,50,8.90
2009,08,26,06,51,8.90
2009,08,26,06,52,9.00
2009,08,26,06,53,9.00
2009,08,26,06,54,9.00
2009,08,26,06,55,9.10
2009,08,26,06,56,9.10
2009,08,26,06,57,9.10
2009,08,26,06,58,9.10
2009,08,26,06,59,9.20
2009,08,26,07,00,9.20
2009,08,26,07,01,9.30
2009,08,26,07,02,9.30
2009,08,26,07,03,9.40
2009,08,26,07,04,9.40
2009,08,26,07,05,9.50
2009,08,26,07,06,9.50
2009,08,26,07,07,9.60
2009,08,26,07,08,9.60
2009,08,26,07,09,9.70
2009,08,26,07,10,9.70
2009,08,26,07,11,9.80
2009,08,26,07,12,9.90
2009,08,26,07,13,9.90
2009,08,26,07,14,10.00
2009,08,26,07,15,10.00
2009,08,26,07,16,10.10
2009,08,26,07,17,10.10
2009,08,26,07,18,10.20
2009,08,26,07,19,10.20
2009,08,26,07,20,10.30
2009,08,26,07,21,10.30
2009,08,26,07,22,10.30
2009,08,26,07,23,10.30
2009,08,26,07,24,10.30
2009,08,26,07,25,10.40
2009,08,26,07,26,10.40
2009,08,26,07,27,10.40
2009,08,26,07,28,10.40
2009,08,26,07,29,10.50
2009,08,26,07,30,10.50
2009,08,26,07,31,10.50
2009,08,26,07,32,10.60
2009,08,26,07,33,10.60
2009,08,26,07,34,10.60
2009,08,26,07,35,10.60
2009,08,26,07,36,10.60
2009,08,26,07,37,10.70
2009,08,26,07,38,10.70
2009,08,26,07,39,10.70
2009,08,26,07,40,10.80
2009,08,26,07,41,10.80
2009,08,26,07,42,10.90
2009,08,26,07,43,10.90
2009,08,26,07,44,10.90
2009,08,26,07,45,11.00
2009,08,26,07,46,11.00
2009,08,26,07,47,11.10
2009,08,26,07,48,11.20
2009,08,26,07,49,11.20
2009,08,26,07,50,11.30
2009,08,26,07,51,11.30
2009,08,26,07,52,11.40
2009,08,26,07,53,11.50
2009,08,26,07,54,11.60
2009,08,26,07,55,11.70
2009,08,26,07,56,11.80
2009,08,26,07,57,11.90
2009,08,26,07,58,12.00
2009,08,26,07,59,12.10
2009,08,26,08,00,12.20
2009,08,26,08,01,12.30
2009,08,26,08,02,12.40
2009,08,26,08,03,12.50
2009,08,26,08,04,12.60
2009,08,26,08,05,12.70
2009,08,26,08,06,12.80
2009,08,26,08,07,13.00
2009,08,26,08,08,13.10
2009,08,26,08,09,13.20
2009,08,26,08,10,13.20
2009,08,26,08,11,13.30
2009,08,26,08,12,13.40
2009,08,26,08,13,13.50
2009,08,26,08,14,13.60
2009,08,26,08,15,13.70
2009,08,26,08,16,13.90
2009,08,26,08,17,14.00
2009,08,26,08,18,14.10
2009,08,26,08,19,14.20
2009,08,26,08,20,14.30
2009,08,26,08,21,14.40
2009,08,26,08,22,14.40
2009,08,26,08,23,14.50
2009,08,26,08,24,14.60
2009,08,26,08,25,14.60
2009,08,26,08,26,14.70
2009,08,26,08,27,14.70
2009,08,26,08,28,14.80
2009,08,26,08,29,15.00
2009,08,26,08,30,15.00
2009,08,26,08,31,15.00
2009,08,26,08,32,15.10
2009,08,26,08,33,15.30
2009,08,26,08,34,15.40
2009,08,26,08,35,15.50
2009,08,26,08,36,15.50
2009,08,26,08,37,15.60
2009,08,26,08,38,15.70
2009,08,26,08,39,15.80
2009,08,26,08,40,15.80
2009,08,26,08,41,15.80
2009,08,26,08,42,15.80
2009,08,26,08,43,15.90
2009,08,26,08,44,15.90
2009,08,26,08,45,15.90
2009,08,26,08,46,15.90
2009,08,26,08,47,15.90
2009,08,26,08,48,15.90
2009,08,26,08,49,15.80
2009,08,26,08,50,15.80
2009,08,26,08,51,15.70
2009,08,26,08,52,15.60
2009,08,26,08,53,15.60
2009,08,26,08,54,15.50
2009,08,26,08,55,15.50
2009,08,26,08,56,15.50
2009,08,26,08,57,15.40
2009,08,26,08,58,15.40
2009,08,26,08,59,15.40
2009,08,26,09,00,15.50
2009,08,26,09,01,15.50
2009,08,26,09,02,15.60
2009,08,26,09,03,15.60
2009,08,26,09,04,15.60
2009,08,26,09,05,15.60
2009,08,26,09,06,15.60
2009,08,26,09,07,15.60
2009,08,26,09,08,15.70
2009,08,26,09,09,15.70
2009,08,26,09,10,15.80
2009,08,26,09,11,15.80
2009,08,26,09,12,15.90
2009,08,26,09,13,15.90
2009,08,26,09,14,16.00
2009,08,26,09,15,16.10
2009,08,26,09,16,16.10
2009,08,26,09,17,16.20
2009,08,26,09,18,16.30
2009,08,26,09,19,16.40
2009,08,26,09,20,16.40
2009,08,26,09,21,16.40
2009,08,26,09,22,16.50
2009,08,26,09,23,16.50
2009,08,26,09,24,16.50
2009,08,26,09,25,16.50
2009,08,26,09,26,16.50
2009,08,26,09,27,16.50
2009,08,26,09,28,16.40
2009,08,26,09,29,16.40
2009,08,26,09,30,16.40
2009,08,26,09,31,16.40
2009,08,26,09,32,16.50
2009,08,26,09,33,16.50
2009,08,26,09,34,16.50
2009,08,26,09,35,16.50
2009,08,26,09,36,16.40
2009,08,26,09,37,16.40
2009,08,26,09,38,16.40
2009,08,26,09,39,16.40
2009,08,26,09,40,16.40
2009,08,26,09,41,16.50
2009,08,26,09,42,16.50
2009,08,26,09,43,16.50
2009,08,26,09,44,16.50
2009,08,26,09,45,16.50
2009,08,26,09,46,16.50
2009,08,26,09,47,16.50
2009,08,26,09,48,16.60
2009,08,26,09,49,16.50
2009,08,26,09,50,16.50
2009,08,26,09,51,16.50
2009,08,26,09,52,16.60
2009,08,26,09,53,16.60
2009,08,26,09,54,16.60
2009,08,26,09,55,16.70
2009,08,26,09,56,16.70
2009,08,26,09,57,16.70
2009,08,26,09,58,16.70
2009,08,26,09,59,16.80
2009,08,26,10,00,16.80
2009,08,26,10,01,16.90
2009,08,26,10,02,16.90
2009,08,26,10,03,16.90
2009,08,26,10,04,16.90
2009,08,26,10,05,17.00
2009,08,26,10,06,17.10
2009,08,26,10,07,17.10
2009,08,26,10,08,17.10
2009,08,26,10,09,17.20
2009,08,26,10,10,17.20
2009,08,26,10,11,17.20
2009,08,26,10,12,17.10
2009,08,26,10,13,17.20
2009,08,26,10,14,17.20
2009,08,26,10,15,17.10
2009,08,26,10,16,17.10
2009,08,26,10,17,17.10
2009,08,26,10,18,17.10
2009,08,26,10,19,17.10
2009,08,26,10,20,17.10
2009,08,26,10,21,17.00
2009,08,26,10,22,16.90
2009,08,26,10,23,16.90
2009,08,26,10,24,16.80
2009,08,26,10,25,16.70
2009,08,26,10,26,16.60
2009,08,26,10,27,16.60
2009,08,26,10,28,16.50
2009,08,26,10,29,16.50
2009,08,26,10,30,16.50
2009,08,26,10,31,16.50
2009,08,26,10,32,16.50
2009,08,26,10,33,16.50
2009,08,26,10,34,16.50
2009,08,26,10,35,16.50
2009,08,26,10,36,16.50
2009,08,26,10,37,16.60
2009,08,26,10,38,16.50
2009,08,26,10,39,16.50
2009,08,26,10,40,16.40
2009,08,26,10,41,16.40
2009,08,26,10,42,16.40
2009,08,26,10,43,16.40
2009,08,26,10,44,16.40
2009,08,26,10,45,16.30
2009,08,26,10,46,16.30
2009,08,26,10,47,16.40
2009,08,26,10,48,16.40
2009,08,26,10,49,16.50
2009,08,26,10,50,16.60
2009,08,26,10,51,16.60
2009,08,26,10,52,16.70
2009,08,26,10,53,16.80
2009,08,26,10,54,16.80
2009,08,26,10,55,16.80
2009,08,26,10,56,16.80
2009,08,26,10,57,16.80
2009,08,26,10,58,16.80
2009,08,26,10,59,16.90
2009,08,26,11,00,16.90
2009,08,26,11,01,16.90
2009,08,26,11,02,16.90
2009,08,26,11,03,16.90
2009,08,26,11,04,16.90
2009,08,26,11,05,16.90
2009,08,26,11,06,16.90
2009,08,26,11,07,17.00
2009,08,26,11,08,17.00
2009,08,26,11,09,17.10
2009,08,26,11,10,17.10
2009,08,26,11,11,17.20
2009,08,26,11,12,17.30
2009,08,26,11,13,17.30
2009,08,26,11,14,17.40
2009,08,26,11,15,17.50
2009,08,26,11,16,17.60
2009,08,26,11,17,17.50
2009,08,26,11,18,17.40
2009,08,26,11,19,17.40
2009,08,26,11,20,17.40
2009,08,26,11,21,17.50
2009,08,26,11,22,17.50
2009,08,26,11,23,17.50
2009,08,26,11,24,17.50
2009,08,26,11,25,17.40
2009,08,26,11,26,17.50
2009,08,26,11,27,17.50
2009,08,26,11,28,17.60
2009,08,26,11,29,17.60
2009,08,26,11,30,17.70
2009,08,26,11,31,17.80
2009,08,26,11,32,17.90
2009,08,26,11,33,17.90
2009,08,26,11,34,17.90
2009,08,26,11,35,18.00
2009,08,26,11,36,18.10
2009,08,26,11,37,18.10
2009,08,26,11,38,18.00
2009,08,26,11,39,18.00
2009,08,26,11,40,18.00
2009,08,26,11,41,18.00
2009,08,26,11,42,18.00
2009,08,26,11,43,18.10
2009,08,26,11,44,18.10
2009,08,26,11,45,18.10
2009,08,26,11,46,18.10
2009,08,26,11,47,18.20
2009,08,26,11,48,18.10
2009,08,26,11,49,18.20
2009,08,26,11,50,18.30
2009,08,26,11,51,18.30
2009,08,26,11,52,18.30
2009,08,26,11,53,18.30
2009,08,26,11,54,18.20
2009,08,26,11,55,18.20
2009,08,26,11,56,18.10
2009,08,26,11,57,18.00
2009,08,26,11,58,17.90
2009,08,26,11,59,17.90
2009,08,26,12,00,17.90
2009,08,26,12,01,18.00
2009,08,26,12,02,18.10
2009,08,26,12,03,18.10
2009,08,26,12,04,18.10
2009,08,26,12,05,18.10
2009,08,26,12,06,18.10
2009,08,26,12,07,18.10
2009,08,26,12,08,18.20
2009,08,26,12,09,18.20
2009,08,26,12,10,18.20
2009,08,26,12,11,18.20
2009,08,26,12,12,18.20
2009,08,26,12,13,18.30
2009,08,26,12,14,18.20
2009,08,26,12,15,18.20
2009,08,26,12,16,18.30
2009,08,26,12,17,18.30
2009,08,26,12,18,18.40
2009,08,26,12,19,18.40
2009,08,26,12,20,18.40
2009,08,26,12,21,18.30
2009,08,26,12,22,18.30
2009,08,26,12,23,18.30
2009,08,26,12,24,18.20
2009,08,26,12,25,18.20
2009,08,26,12,26,18.10
2009,08,26,12,27,18.00
2009,08,26,12,28,17.90
2009,08,26,12,29,17.80
2009,08,26,12,30,17.70
2009,08,26,12,31,17.70
2009,08,26,12,32,17.60
2009,08,26,12,33,17.60
2009,08,26,12,34,17.50
2009,08,26,12,35,17.50
2009,08,26,12,36,17.50
2009,08,26,12,37,17.60
2009,08,26,12,38,17.70
2009,08,26,12,39,17.80
2009,08,26,12,40,18.00
2009,08,26,12,41,18.10
2009,08,26,12,42,18.20
2009,08,26,12,43,18.30
2009,08,26,12,44,18.40
2009,08,26,12,45,18.60
2009,08,26,12,46,18.80
2009,08,26,12,47,18.80
2009,08,26,12,48,18.80
2009,08,26,12,49,18.90
2009,08,26,12,50,18.90
2009,08,26,12,51,18.90
2009,08,26,12,52,18.90
2009,08,26,12,53,18.90
2009,08,26,12,54,18.80
2009,08,26,12,55,18.80
2009,08,26,12,56,18.80
2009,08,26,12,57,18.70
2009,08,26,12,58,18.80
2009,08,26,12,59,18.80
2009,08,26,13,00,18.90
2009,08,26,13,01,19.00
2009,08,26,13,02,19.00
2009,08,26,13,03,19.10
2009,08,26,13,04,19.20
2009,08,26,13,05,19.30
2009,08,26,13,06,19.30
2009,08,26,13,07,19.30
2009,08,26,13,08,19.30
2009,08,26,13,09,19.30
2009,08,26,13,10,19.30
2009,08,26,13,11,19.40
2009,08,26,13,12,19.50
2009,08,26,13,13,19.60
2009,08,26,13,14,19.70
2009,08,26,13,15,19.70
2009,08,26,13,16,19.80
2009,08,26,13,17,19.80
2009,08,26,13,18,19.80
2009,08,26,13,19,19.70
2009,08,26,13,20,19.60
2009,08,26,13,21,19.50
2009,08,26,13,22,19.50
2009,08,26,13,23,19.50
2009,08,26,13,24,19.40
2009,08,26,13,25,19.50
2009,08,26,13,26,19.50
2009,08,26,13,27,19.60
2009,08,26,13,28,19.50
2009,08,26,13,29,19.50
2009,08,26,13,30,19.40
2009,08,26,13,31,19.40
2009,08,26,13,32,19.40
2009,08,26,13,33,19.30
2009,08,26,13,34,19.30
2009,08,26,13,35,19.30
2009,08,26,13,36,19.30
2009,08,26,13,37,19.40
2009,08,26,13,38,19.40
2009,08,26,13,39,19.40
2009,08,26,13,40,19.50
2009,08,26,13,41,19.50
2009,08,26,13,42,19.50
2009,08,26,13,43,19.60
2009,08,26,13,44,19.60
2009,08,26,13,45,19.60
2009,08,26,13,46,19.70
2009,08,26,13,47,19.70
2009,08,26,13,48,19.80
2009,08,26,13,49,19.80
2009,08,26,13,50,19.70
2009,08,26,13,51,19.60
2009,08,26,13,52,19.60
2009,08,26,13,53,19.70
2009,08,26,13,54,19.70
2009,08,26,13,55,19.70
2009,08,26,13,56,19.80
2009,08,26,13,57,19.80
2009,08,26,13,58,19.80
2009,08,26,13,59,19.80
2009,08,26,14,00,19.90
2009,08,26,14,01,19.80
2009,08,26,14,02,19.80
2009,08,26,14,03,19.80
2009,08,26,14,04,19.80
2009,08,26,14,05,19.80
2009,08,26,14,06,19.80
2009,08,26,14,07,19.70
2009,08,26,14,08,19.70
2009,08,26,14,09,19.70
2009,08,26,14,10,19.70
2009,08,26,14,11,19.80
2009,08,26,14,12,19.80
2009,08,26,14,13,19.80
2009,08,26,14,14,19.80
2009,08,26,14,15,19.90
2009,08,26,14,16,20.00
2009,08,26,14,17,20.20
2009,08,26,14,18,20.20
2009,08,26,14,19,20.20
2009,08,26,14,20,20.20
2009,08,26,14,21,20.30
2009,08,26,14,22,20.30
2009,08,26,14,23,20.30
2009,08,26,14,24,20.40
2009,08,26,14,25,20.40
2009,08,26,14,26,20.40
2009,08,26,14,27,20.40
2009,08,26,14,28,20.40
2009,08,26,14,29,20.40
2009,08,26,14,30,20.40
2009,08,26,14,31,20.50
2009,08,26,14,32,20.60
2009,08,26,14,33,20.60
2009,08,26,14,34,20.70
2009,08,26,14,35,20.80
2009,08,26,14,36,20.80
2009,08,26,14,37,20.90
2009,08,26,14,38,20.90
2009,08,26,14,39,20.90
2009,08,26,14,40,20.80
2009,08,26,14,41,20.80
2009,08,26,14,42,20.80
2009,08,26,14,43,20.80
2009,08,26,14,44,20.80
2009,08,26,14,45,20.80
2009,08,26,14,46,20.80
2009,08,26,14,47,20.80
2009,08,26,14,48,20.80
2009,08,26,14,49,20.80
2009,08,26,14,50,20.80
2009,08,26,14,51,20.80
2009,08,26,14,52,20.80
2009,08,26,14,53,20.80
2009,08,26,14,54,20.80
2009,08,26,14,55,20.90
2009,08,26,14,56,21.00
2009,08,26,14,57,21.00
2009,08,26,14,58,21.00
2009,08,26,14,59,21.00
2009,08,26,15,00,21.00
2009,08,26,15,01,20.90
2009,08,26,15,02,20.90
2009,08,26,15,03,20.90
2009,08,26,15,04,20.80
2009,08,26,15,05,20.80
2009,08,26,15,06,20.80
2009,08,26,15,07,20.80
2009,08,26,15,08,20.80
2009,08,26,15,09,20.80
2009,08,26,15,10,20.80
2009,08,26,15,11,20.80
2009,08,26,15,12,20.80
2009,08,26,15,13,20.80
2009,08,26,15,14,20.90
2009,08,26,15,15,20.90
2009,08,26,15,16,20.90
2009,08,26,15,17,20.80
2009,08,26,15,18,20.70
2009,08,26,15,19,20.60
2009,08,26,15,20,20.50
2009,08,26,15,21,20.40
2009,08,26,15,22,20.40
2009,08,26,15,23,20.30
2009,08,26,15,24,20.30
2009,08,26,15,25,20.20
2009,08,26,15,26,20.20
2009,08,26,15,27,20.10
2009,08,26,15,28,20.10
2009,08,26,15,29,20.00
2009,08,26,15,30,20.00
2009,08,26,15,31,19.90
2009,08,26,15,32,19.80
2009,08,26,15,33,19.80
2009,08,26,15,34,19.80
2009,08,26,15,35,19.80
2009,08,26,15,36,19.80
2009,08,26,15,37,19.80
2009,08,26,15,38,19.70
2009,08,26,15,39,19.70
2009,08,26,15,40,19.70
2009,08,26,15,41,19.70
2009,08,26,15,42,19.70
2009,08,26,15,43,19.70
2009,08,26,15,44,19.70
2009,08,26,15,45,19.70
2009,08,26,15,46,19.70
2009,08,26,15,47,19.70
2009,08,26,15,48,19.70
2009,08,26,15,49,19.70
2009,08,26,15,50,19.80
2009,08,26,15,51,19.70
2009,08,26,15,52,19.70
2009,08,26,15,53,19.70
2009,08,26,15,54,19.70
2009,08,26,15,55,19.70
2009,08,26,15,56,19.70
2009,08,26,15,57,19.60
2009,08,26,15,58,19.60
2009,08,26,15,59,19.50
2009,08,26,16,00,19.40
2009,08,26,16,01,19.40
2009,08,26,16,02,19.40
2009,08,26,16,03,19.40
2009,08,26,16,04,19.30
2009,08,26,16,05,19.30
2009,08,26,16,06,19.30
2009,08,26,16,07,19.30
2009,08,26,16,08,19.30
2009,08,26,16,09,19.30
2009,08,26,16,10,19.30
2009,08,26,16,11,19.30
2009,08,26,16,12,19.30
2009,08,26,16,13,19.40
2009,08,26,16,14,19.40
2009,08,26,16,15,19.40
2009,08,26,16,16,19.40
2009,08,26,16,17,19.30
2009,08,26,16,18,19.30
2009,08,26,16,19,19.30
2009,08,26,16,20,19.40
2009,08,26,16,21,19.40
2009,08,26,16,22,19.40
2009,08,26,16,23,19.40
2009,08,26,16,24,19.50
2009,08,26,16,25,19.50
2009,08,26,16,26,19.50
2009,08,26,16,27,19.50
2009,08,26,16,28,19.50
2009,08,26,16,29,19.50
2009,08,26,16,30,19.50
2009,08,26,16,31,19.50
2009,08,26,16,32,19.50
2009,08,26,16,33,19.40
2009,08,26,16,34,19.40
2009,08,26,16,35,19.40
2009,08,26,16,36,19.40
2009,08,26,16,37,19.50
2009,08,26,16,38,19.50
2009,08,26,16,39,19.50
2009,08,26,16,40,19.60
2009,08,26,16,41,19.60
2009,08,26,16,42,19.60
2009,08,26,16,43,19.60
2009,08,26,16,44,19.60
2009,08,26,16,45,19.60
2009,08,26,16,46,19.60
2009,08,26,16,47,19.60
2009,08,26,16,48,19.60
2009,08,26,16,49,19.60
2009,08,26,16,50,19.60
2009,08,26,16,51,19.60
2009,08,26,16,52,19.60
2009,08,26,16,53,19.60
2009,08,26,16,54,19.60
2009,08,26,16,55,19.60
2009,08,26,16,56,19.60
2009,08,26,16,57,19.60
2009,08,26,16,58,19.60
2009,08,26,16,59,19.60
2009,08,26,17,00,19.70
2009,08,26,17,01,19.70
2009,08,26,17,02,19.70
2009,08,26,17,03,19.70
2009,08,26,17,04,19.60
2009,08,26,17,05,19.60
2009,08,26,17,06,19.50
2009,08,26,17,07,19.50
2009,08,26,17,08,19.50
2009,08,26,17,09,19.60
2009,08,26,17,10,19.60
2009,08,26,17,11,19.50
2009,08,26,17,12,19.50
2009,08,26,17,13,19.50
2009,08,26,17,14,19.50
2009,08,26,17,15,19.50
2009,08,26,17,16,19.40
2009,08,26,17,17,19.40
2009,08,26,17,18,19.40
2009,08,26,17,19,19.40
2009,08,26,17,20,19.30
2009,08,26,17,21,19.30
2009,08,26,17,22,19.30
2009,08,26,17,23,19.30
2009,08,26,17,24,19.30
2009,08,26,17,25,19.30
2009,08,26,17,26,19.30
2009,08,26,17,27,19.30
2009,08,26,17,28,19.30